DAL474 KSEA-KBOS

Flight info

Callsign DAL474
Flight time N/A
Altitude 35000
Route MONTN2 SEA ZADON ZELAK ZIRAN ZAXBY BLOWS GTF COKEE WILTN Q140 TTAIL/N0460F370 SNARG RUBKI Q140 AHPAH GONZZ PONCT JFUND2
Aircraft A21N/M-SDE3FGHIRWY/LB1

Departure

Time N/A
Airport Seattle–Tacoma International Airport (KSEA)

Arrival

Time 2026-05-07 01:50
Airport Boston Logan International Airport (KBOS)
Time Latitude Longitude Altitude Speed Heading
2026-05-07 00:41 43.81616 -80.10381 34948 ft 479 kts 115°
2026-05-07 00:42 43.79741 -80.01498 34946 ft 478 kts 116°
2026-05-07 00:42 43.77853 -79.92632 34947 ft 479 kts 116°
2026-05-07 00:43 43.75961 -79.83796 34948 ft 477 kts 116°
2026-05-07 00:43 43.74069 -79.75001 34948 ft 478 kts 116°
2026-05-07 00:44 43.72163 -79.66167 34946 ft 478 kts 116°
2026-05-07 00:44 43.70241 -79.57308 34949 ft 480 kts 115°
2026-05-07 00:45 43.68301 -79.48402 34946 ft 484 kts 115°
2026-05-07 00:45 43.66366 -79.39547 34951 ft 483 kts 115°
2026-05-07 00:46 43.64220 -79.30802 34951 ft 476 kts 120°
2026-05-07 00:46 43.61826 -79.22228 34954 ft 476 kts 121°
2026-05-07 00:47 43.59452 -79.13766 34956 ft 473 kts 121°
2026-05-07 00:47 43.57084 -79.05318 34958 ft 468 kts 121°
2026-05-07 00:48 43.54753 -78.97044 34957 ft 460 kts 122°
2026-05-07 00:48 43.52434 -78.88856 34956 ft 457 kts 122°
2026-05-07 00:49 43.50114 -78.80705 34953 ft 457 kts 122°
2026-05-07 00:49 43.47794 -78.72564 34952 ft 456 kts 122°
2026-05-07 00:50 43.45468 -78.64410 34947 ft 457 kts 122°
2026-05-07 00:50 43.43140 -78.56278 34945 ft 457 kts 122°
2026-05-07 00:51 43.40800 -78.48128 34944 ft 457 kts 122°
2026-05-07 00:51 43.38469 -78.40037 34942 ft 455 kts 122°
2026-05-07 00:52 43.36114 -78.31885 34940 ft 455 kts 122°
2026-05-07 00:52 43.33779 -78.23839 34937 ft 456 kts 122°
2026-05-07 00:53 43.31490 -78.15647 34938 ft 459 kts 119°
2026-05-07 00:53 43.29728 -78.07134 34937 ft 469 kts 113°
2026-05-07 00:54 43.28427 -77.98322 34937 ft 471 kts 111°
2026-05-07 00:54 43.27152 -77.89422 34937 ft 470 kts 111°
2026-05-07 00:55 43.25892 -77.80724 34938 ft 470 kts 111°
2026-05-07 00:55 43.24606 -77.71937 34943 ft 471 kts 111°
2026-05-07 00:56 43.23337 -77.63307 34945 ft 470 kts 111°
2026-05-07 00:56 43.22034 -77.54511 34947 ft 470 kts 111°
2026-05-07 00:57 43.20720 -77.45687 34946 ft 470 kts 111°
2026-05-07 00:57 43.19403 -77.36898 34948 ft 471 kts 111°
2026-05-07 00:58 43.18080 -77.28107 34946 ft 470 kts 112°
2026-05-07 00:58 43.16748 -77.19315 34945 ft 469 kts 112°
2026-05-07 00:59 43.14750 -77.06217 34944 ft 469 kts 112°
2026-05-07 01:00 43.13409 -76.97463 34947 ft 467 kts 112°
2026-05-07 01:00 43.12076 -76.88799 34948 ft 465 kts 113°
2026-05-07 01:01 43.10737 -76.80160 34948 ft 462 kts 114°
2026-05-07 01:01 43.09395 -76.71598 34946 ft 460 kts 114°
2026-05-07 01:02 43.08304 -76.62848 34939 ft 466 kts 110°
2026-05-07 01:02 43.07367 -76.54076 34931 ft 466 kts 110°
2026-05-07 01:03 43.06427 -76.45306 34925 ft 467 kts 110°
2026-05-07 01:03 43.05475 -76.36516 34924 ft 466 kts 110°
2026-05-07 01:04 43.04516 -76.27740 34923 ft 465 kts 110°
2026-05-07 01:04 43.03560 -76.19063 34926 ft 464 kts 110°
2026-05-07 01:05 43.02587 -76.10313 34925 ft 465 kts 110°
2026-05-07 01:05 43.01605 -76.01537 34925 ft 465 kts 110°
2026-05-07 01:06 43.00618 -75.92771 34927 ft 465 kts 110°
2026-05-07 01:06 42.99626 -75.84020 34926 ft 467 kts 110°
2026-05-07 01:07 42.98619 -75.75200 34927 ft 467 kts 110°
2026-05-07 01:07 42.97612 -75.66445 34927 ft 467 kts 110°
2026-05-07 01:08 42.96593 -75.57636 34924 ft 468 kts 110°
2026-05-07 01:08 42.95567 -75.48840 34923 ft 468 kts 110°
2026-05-07 01:09 42.94539 -75.40078 34920 ft 469 kts 110°
2026-05-07 01:09 42.93496 -75.31251 34917 ft 467 kts 111°
2026-05-07 01:10 42.92449 -75.22459 34918 ft 469 kts 111°
2026-05-07 01:10 42.91394 -75.13664 34921 ft 469 kts 110°
2026-05-07 01:11 42.90340 -75.04936 34923 ft 468 kts 110°
2026-05-07 01:11 42.89268 -74.96139 34925 ft 470 kts 110°
2026-05-07 01:12 42.88184 -74.87296 34925 ft 472 kts 109°
2026-05-07 01:12 42.87098 -74.78442 34927 ft 472 kts 109°
2026-05-07 01:13 42.86008 -74.69614 34925 ft 473 kts 109°
2026-05-07 01:13 42.84906 -74.60756 34923 ft 472 kts 109°
2026-05-07 01:14 42.83793 -74.51886 34912 ft 472 kts 109°
2026-05-07 01:14 42.82676 -74.43045 34894 ft 473 kts 109°
2026-05-07 01:15 42.81554 -74.34221 34874 ft 473 kts 110°
2026-05-07 01:15 42.80421 -74.25372 34879 ft 475 kts 110°
2026-05-07 01:16 42.79277 -74.16491 34883 ft 475 kts 110°
2026-05-07 01:16 42.78135 -74.07672 34888 ft 476 kts 110°
2026-05-07 01:17 42.76979 -73.98804 34889 ft 475 kts 110°
2026-05-07 01:17 42.75813 -73.89926 34890 ft 476 kts 110°
2026-05-07 01:18 42.74858 -73.80968 34888 ft 482 kts 104°
2026-05-07 01:18 42.74572 -73.71743 34856 ft 487 kts 99°
2026-05-07 01:18 42.74551 -73.67164 34606 ft 477 kts 99°
2026-05-07 01:19 42.74537 -73.62728 34358 ft 469 kts 99°
2026-05-07 01:19 42.74513 -73.58319 34104 ft 467 kts 100°
2026-05-07 01:19 42.74480 -73.53889 33780 ft 465 kts 100°
2026-05-07 01:19 42.74443 -73.49513 33381 ft 464 kts 100°
2026-05-07 01:20 42.74403 -73.45117 32899 ft 464 kts 100°
2026-05-07 01:20 42.74361 -73.40688 32336 ft 464 kts 99°
2026-05-07 01:20 42.74319 -73.36323 31747 ft 465 kts 99°
2026-05-07 01:20 42.74276 -73.31971 31145 ft 464 kts 100°
2026-05-07 01:21 42.74233 -73.27590 30647 ft 461 kts 99°
2026-05-07 01:21 42.74191 -73.23200 30269 ft 454 kts 99°
2026-05-07 01:21 42.74147 -73.18911 29881 ft 449 kts 100°
2026-05-07 01:21 42.74086 -73.14734 29497 ft 442 kts 101°
2026-05-07 01:22 42.73888 -73.10589 29110 ft 433 kts 104°
2026-05-07 01:22 42.73518 -73.06544 28665 ft 426 kts 107°
2026-05-07 01:22 42.73064 -73.02571 28245 ft 421 kts 107°
2026-05-07 01:22 42.72607 -72.98662 27908 ft 416 kts 107°
2026-05-07 01:23 42.72149 -72.94789 27580 ft 416 kts 107°
2026-05-07 01:23 42.71692 -72.90889 27222 ft 414 kts 107°
2026-05-07 01:23 42.71244 -72.87049 26851 ft 411 kts 107°
2026-05-07 01:23 42.70793 -72.83189 26467 ft 408 kts 107°
2026-05-07 01:24 42.70350 -72.79405 26083 ft 406 kts 107°
2026-05-07 01:24 42.69908 -72.75644 25692 ft 403 kts 107°
2026-05-07 01:24 42.69466 -72.71893 25304 ft 400 kts 107°
2026-05-07 01:24 42.69025 -72.68171 24927 ft 397 kts 107°
2026-05-07 01:25 42.68584 -72.64449 24552 ft 394 kts 107°
2026-05-07 01:25 42.68151 -72.60820 24195 ft 390 kts 107°
2026-05-07 01:25 42.67709 -72.57162 23832 ft 388 kts 107°
2026-05-07 01:25 42.67272 -72.53567 23456 ft 385 kts 107°
2026-05-07 01:26 42.66833 -72.49968 23067 ft 382 kts 107°
2026-05-07 01:26 42.66401 -72.46430 22678 ft 380 kts 107°
2026-05-07 01:26 42.65968 -72.42895 22295 ft 377 kts 107°
2026-05-07 01:26 42.65537 -72.39381 21918 ft 374 kts 107°
2026-05-07 01:27 42.65104 -72.35868 21535 ft 371 kts 107°
2026-05-07 01:27 42.64678 -72.32419 21156 ft 369 kts 107°
2026-05-07 01:27 42.64267 -72.28990 20710 ft 368 kts 107°
2026-05-07 01:27 42.63872 -72.25571 20238 ft 367 kts 106°
2026-05-07 01:28 42.63478 -72.22150 19772 ft 366 kts 106°
2026-05-07 01:28 42.63081 -72.18717 19308 ft 364 kts 106°
2026-05-07 01:28 42.62822 -72.16492 19005 ft 363 kts 106°
2026-05-07 01:29 42.61831 -72.08045 17786 ft 361 kts 106°
2026-05-07 01:29 42.61439 -72.04720 17278 ft 361 kts 105°
2026-05-07 01:29 42.61036 -72.01378 16761 ft 360 kts 106°
2026-05-07 01:29 42.60619 -71.98005 16231 ft 359 kts 106°
2026-05-07 01:30 42.60204 -71.94680 15700 ft 359 kts 105°
2026-05-07 01:30 42.59786 -71.91327 15155 ft 358 kts 105°
2026-05-07 01:30 42.59372 -71.88013 14632 ft 357 kts 105°
2026-05-07 01:30 42.58958 -71.84685 14108 ft 350 kts 105°
2026-05-07 01:31 42.58542 -71.81497 13724 ft 338 kts 107°
2026-05-07 01:31 42.58072 -71.78428 13332 ft 334 kts 108°
2026-05-07 01:31 42.57585 -71.75359 12930 ft 331 kts 108°
2026-05-07 01:31 42.57102 -71.72323 12573 ft 327 kts 108°
2026-05-07 01:32 42.56619 -71.69283 12234 ft 323 kts 108°
2026-05-07 01:32 42.56150 -71.66332 11911 ft 319 kts 108°
2026-05-07 01:32 42.55683 -71.63391 11590 ft 315 kts 108°
2026-05-07 01:32 42.55225 -71.60506 11373 ft 311 kts 108°
2026-05-07 01:33 42.54707 -71.57667 11202 ft 309 kts 110°
2026-05-07 01:33 42.54129 -71.54852 10859 ft 307 kts 111°
2026-05-07 01:33 42.53549 -71.52072 10516 ft 305 kts 111°
2026-05-07 01:33 42.52977 -71.49335 10196 ft 302 kts 110°
2026-05-07 01:34 42.52421 -71.46652 10085 ft 291 kts 110°
2026-05-07 01:34 42.51875 -71.44012 9981 ft 282 kts 111°
2026-05-07 01:34 42.51352 -71.41502 9751 ft 280 kts 111°
2026-05-07 01:34 42.50814 -71.38930 9440 ft 278 kts 111°
2026-05-07 01:35 42.50292 -71.36436 9149 ft 276 kts 111°
2026-05-07 01:35 42.49787 -71.33936 8817 ft 275 kts 111°
2026-05-07 01:35 42.49289 -71.31435 8490 ft 274 kts 111°
2026-05-07 01:35 42.48796 -71.28954 8190 ft 271 kts 110°
2026-05-07 01:36 42.48309 -71.26505 7903 ft 268 kts 111°
2026-05-07 01:36 42.47828 -71.24094 7622 ft 265 kts 111°
2026-05-07 01:36 42.47347 -71.21693 7343 ft 262 kts 111°
2026-05-07 01:36 42.46869 -71.19312 7068 ft 259 kts 111°
2026-05-07 01:37 42.46435 -71.16950 6783 ft 260 kts 102°
2026-05-07 01:37 42.46534 -71.14469 6475 ft 267 kts 78°
2026-05-07 01:37 42.47240 -71.12139 6241 ft 266 kts 67°
2026-05-07 01:37 42.48073 -71.09968 6149 ft 256 kts 65°
2026-05-07 01:38 42.48898 -71.07856 6055 ft 247 kts 65°
2026-05-07 01:38 42.49942 -71.05993 5982 ft 257 kts 39°
2026-05-07 01:38 42.51543 -71.04864 6002 ft 261 kts 20°
2026-05-07 01:38 42.53233 -71.04076 5996 ft 261 kts 18°
2026-05-07 01:39 42.54856 -71.03361 5984 ft 254 kts 18°
2026-05-07 01:39 42.56380 -71.02666 5984 ft 250 kts 19°
2026-05-07 01:39 42.57970 -71.01912 5984 ft 248 kts 19°
2026-05-07 01:39 42.59586 -71.01109 5985 ft 246 kts 20°
2026-05-07 01:40 42.61179 -71.00286 5973 ft 244 kts 21°
2026-05-07 01:40 42.62761 -70.99463 5715 ft 242 kts 21°
2026-05-07 01:40 42.64326 -70.98646 5374 ft 243 kts 21°
2026-05-07 01:40 42.65871 -70.97840 5265 ft 228 kts 21°
2026-05-07 01:41 42.67331 -70.97079 4865 ft 228 kts 21°
2026-05-07 01:41 42.68801 -70.96296 4464 ft 228 kts 25°
2026-05-07 01:41 42.69680 -70.95488 4183 ft 225 kts 47°
2026-05-07 01:41 42.70440 -70.93168 3998 ft 215 kts 86°
2026-05-07 01:42 42.70316 -70.91196 4001 ft 211 kts 108°
2026-05-07 01:42 42.69926 -70.89361 3995 ft 210 kts 111°
2026-05-07 01:42 42.69407 -70.87717 3975 ft 205 kts 131°
2026-05-07 01:42 42.68248 -70.86755 3971 ft 195 kts 171°
2026-05-07 01:43 42.66934 -70.86880 3991 ft 188 kts 194°
2026-05-07 01:43 42.65707 -70.87337 3991 ft 187 kts 196°
2026-05-07 01:43 42.64427 -70.87821 3990 ft 190 kts 195°
2026-05-07 01:43 42.63151 -70.88274 3991 ft 192 kts 195°
2026-05-07 01:44 42.61914 -70.88689 3988 ft 191 kts 194°
2026-05-07 01:44 42.61099 -70.88955 3983 ft 188 kts 194°
2026-05-07 01:44 42.59414 -70.89494 3986 ft 187 kts 194°
2026-05-07 01:44 42.58198 -70.89947 3866 ft 182 kts 198°
2026-05-07 01:45 42.56999 -70.90510 3483 ft 182 kts 200°
2026-05-07 01:45 42.55795 -70.91091 3115 ft 181 kts 200°
2026-05-07 01:45 42.54644 -70.91650 2991 ft 174 kts 200°
2026-05-07 01:45 42.53493 -70.92210 2991 ft 174 kts 200°
2026-05-07 01:46 42.52370 -70.92755 2983 ft 170 kts 200°
2026-05-07 01:46 42.51267 -70.93291 2962 ft 166 kts 200°
2026-05-07 01:46 42.50225 -70.93813 2770 ft 157 kts 201°
2026-05-07 01:46 42.49193 -70.94350 2342 ft 161 kts 201°
2026-05-07 01:47 42.48151 -70.94876 1965 ft 161 kts 200°
2026-05-07 01:47 42.47101 -70.95390 1706 ft 158 kts 200°
2026-05-07 01:47 42.46065 -70.95889 1692 ft 156 kts 200°
2026-05-07 01:47 42.45069 -70.96367 1609 ft 148 kts 200°
2026-05-07 01:48 42.44125 -70.96821 1400 ft 139 kts 200°
2026-05-07 01:48 42.43222 -70.97256 1242 ft 138 kts 200°
2026-05-07 01:48 42.42343 -70.97680 1056 ft 132 kts 200°
2026-05-07 01:48 42.41490 -70.98092 889 ft 131 kts 200°
2026-05-07 01:49 42.40626 -70.98509 715 ft 130 kts 200°
2026-05-07 01:49 42.39781 -70.98917 541 ft 130 kts 200°
2026-05-07 01:49 42.38938 -70.99331 374 ft 129 kts 201°
2026-05-07 01:49 42.38082 -70.99743 191 ft 129 kts 200°
2026-05-07 01:50 42.37240 -71.00147 41 ft 129 kts 201°
2026-05-07 01:50 42.36446 -71.00525 15 ft 101 kts 201°
2026-05-07 01:50 42.35944 -71.00774 17 ft 52 kts 201°
2026-05-07 01:50 42.35758 -71.00862 19 ft 19 kts 198°
2026-05-07 01:51 42.35574 -71.00953 19 ft 30 kts 200°
2026-05-07 01:51 42.35403 -71.01038 20 ft 16 kts 207°
2026-05-07 01:51 42.35394 -71.01161 22 ft 14 kts 292°
2026-05-07 01:51 42.35422 -71.01265 22 ft 7 kts 291°
2026-05-07 01:52 42.35432 -71.01299 22 ft 2 kts 290°
2026-05-07 01:52 42.35433 -71.01303 22 ft 0 kts 290°
2026-05-07 01:52 42.35435 -71.01312 22 ft 1 kts 290°
2026-05-07 01:52 42.35428 -71.01384 22 ft 10 kts 218°
2026-05-07 01:53 42.35376 -71.01416 21 ft 4 kts 203°
2026-05-07 01:53 42.35361 -71.01424 21 ft 2 kts 203°
2026-05-07 01:53 42.35344 -71.01457 20 ft 6 kts 269°
2026-05-07 01:53 42.35376 -71.01541 19 ft 18 kts 306°
2026-05-07 01:54 42.35448 -71.01676 18 ft 14 kts 309°
2026-05-07 01:54 42.35470 -71.01704 18 ft 11 kts 327°
2026-05-07 01:54 42.35578 -71.01697 19 ft 8 kts 17°
2026-05-07 01:54 42.35653 -71.01661 19 ft 14 kts 19°
2026-05-07 01:55 42.35749 -71.01615 20 ft 14 kts 19°
2026-05-07 01:55 42.35820 -71.01633 19 ft 11 kts 291°
2026-05-07 01:55 42.35840 -71.01749 19 ft 13 kts 282°
2026-05-07 01:55 42.35864 -71.01868 19 ft 13 kts 294°
2026-05-07 01:56 42.35912 -71.01984 19 ft 14 kts 301°
2026-05-07 01:56 42.35967 -71.02110 16 ft 16 kts 301°
2026-05-07 01:56 42.36031 -71.02254 15 ft 17 kts 301°
2026-05-07 01:56 42.36125 -71.02309 15 ft 15 kts 18°
2026-05-07 01:57 42.36223 -71.02257 15 ft 15 kts 21°
2026-05-07 01:57 42.36308 -71.02248 15 ft 12 kts 320°
2026-05-07 01:57 42.36366 -71.02322 15 ft 9 kts 322°
2026-05-07 01:57 42.36384 -71.02389 15 ft 5 kts 265°
2026-05-07 01:58 42.36384 -71.02398 15 ft 1 kts 270°
2026-05-07 01:58 42.36384 -71.02425 15 ft 3 kts 271°
2026-05-07 01:58 42.36384 -71.02431 15 ft 0 kts 271°